Regional Weather Roundup
Issued by NWS Little Rock, AR

Home | Current Version | Previous Version | Text Only | Print | Product List | Glossary On
Versions: 1 2 3 4 5 6 7 8 9 10 11 12 13 14 15 16 17 18 19 20 21 22 23 24 25 26 27 28 29 30 31 32 33 34 35 36 37 38 39 40 41 42 43 44 45 46 47 48 49 50
000
ASUS44 KLZK 171212
RWRLZK

WEATHER ROUNDUP FOR ARKANSAS
NATIONAL WEATHER SERVICE LITTLE ROCK AR
600 AM CST SUN DEC 17 2017

NOTE: "FAIR" INDICATES FEW OR NO CLOUDS BELOW 12,000 FEET WITH NO
SIGNIFICANT WEATHER AND/OR OBSTRUCTIONS TO VISIBILITY.

ARZ001-003-010-029-171300-
NORTHWEST ARKANSAS

CITY           SKY/WX    TMP DP  RH WIND       PRES   REMARKS
FAYETTEVILLE   CLOUDY    43  43 100 S5        30.03R
6HR MIN TEMP:  42; 6HR MAX TEMP:  45; 6HR PCP:  0.24;

FORT SMITH     CLOUDY    45  44  97 CALM      30.05R
6HR MIN TEMP:  44; 6HR MAX TEMP:  46; 6HR PCP:  0.29;

HARRISON       CLOUDY    41  41 100 E3        30.02R
6HR MIN TEMP:  41; 6HR MAX TEMP:  43; 6HR PCP:  0.37;

BENTONVILLE    CLOUDY    42  41  96 CALM      30.04R
6HR MIN TEMP:  41; 6HR MAX TEMP:  42; 6HR PCP:  0.27;

ROGERS         CLOUDY    42  41  96 CALM      30.03R
6HR MIN TEMP:  41; 6HR MAX TEMP:  42; 6HR PCP:  0.30;

SILOAM SPGS    CLOUDY    42  41  96 SW3       30.04R FOG
6HR MIN TEMP:  41; 6HR MAX TEMP:  42; 6HR PCP:  0.18;

HIGHFILL       CLOUDY    43  42  97 CALM      30.02R
6HR MIN TEMP:  41; 6HR MAX TEMP:  43; 6HR PCP:  0.23;

SPRINGDALE     CLOUDY    43  43 100 SW3       30.03
$$

ARZ004-005-016-171300-
NORTH CENTRAL ARKANSAS

CITY           SKY/WX    TMP DP  RH WIND       PRES   REMARKS
BATESVILLE     CLOUDY    42  42 100 E8        30.07F FOG
6HR MIN TEMP:  42; 6HR MAX TEMP:  46; 6HR PCP:  0.72;

FLIPPIN        LGT RAIN  42  41  96 SE5       30.03S
6HR MIN TEMP:  42; 6HR MAX TEMP:  45; 6HR PCP:  0.38;

MTN HOME       LGT RAIN  41  41 100 SE8       30.00S
6HR MIN TEMP:  41; 6HR MAX TEMP:  45; 6HR PCP:  0.39;

$$

ARZ040-041-171300-
WEST CENTRAL ARKANSAS

CITY           SKY/WX    TMP DP  RH WIND       PRES   REMARKS
MENA           CLOUDY    45  45 100 CALM      30.06S
MOUNT IDA      CLOUDY    44  43  96 SE3       30.04R
6HR MIN TEMP:  43; 6HR MAX TEMP:  45; 6HR PCP:  0.49;

$$

ARZ009-017-025-026-028-171300-
NORTHEAST ARKANSAS

CITY           SKY/WX    TMP DP  RH WIND       PRES   REMARKS
JONESBORO      LGT RAIN  42  42 100 SE9       30.12S
6HR MIN TEMP:  42; 6HR MAX TEMP:  46; 6HR PCP:  0.40;

NEWPORT        LGT RAIN  41  41 100 E8        30.10F
6HR MIN TEMP:  41; 6HR MAX TEMP:  45; 6HR PCP:  0.52;

WALNUT RIDGE   LGT RAIN  41  41 100 SE8       30.09F FOG
6HR MIN TEMP:  41; 6HR MAX TEMP:  45; 6HR PCP:  0.52;

BLYTHEVILLE    LGT RAIN  42  42 100 SE7       30.15F
6HR MIN TEMP:  42; 6HR MAX TEMP:  46;

$$

ARZ022-023-033-042-044-171300-
CENTRAL ARKANSAS

CITY           SKY/WX    TMP DP  RH WIND       PRES   REMARKS
LITTLE ROCK    CLOUDY    42  42 100 SE10      30.08R FOG
6HR MIN TEMP:  42; 6HR MAX TEMP:  44; 6HR PCP:  1.00;

N LITTLE ROCK    N/A     42  41  96 SE8       30.10R
6HR MIN TEMP:  42; 6HR MAX TEMP:  44;

JACKSONVILLE   CLOUDY    43  43  99 E6        30.07S
6HR MIN TEMP:  43; 6HR MAX TEMP:  46; 6HR PCP:  0.89;

SEARCY         CLOUDY    43  43 100 SE6       30.10F
6HR MIN TEMP:  43; 6HR MAX TEMP:  45; 6HR PCP:  0.55;

HOT SPRINGS    CLOUDY    44  44 100 E3        30.09R
6HR MIN TEMP:  44; 6HR MAX TEMP:  46; 6HR PCP:  0.58;

RUSSELLVILLE   CLOUDY    43  43 100 E7        30.05R
6HR MIN TEMP:  43; 6HR MAX TEMP:  44; 6HR PCP:  0.45;

CLINTON        CLOUDY    43  43 100 VRB3      30.06R
$$

ARZ036-171300-
EAST ARKANSAS

CITY           SKY/WX    TMP DP  RH WIND       PRES   REMARKS
WEST MEMPHIS   LGT RAIN  41  50 100 E7        30.14F
6HR MIN TEMP:  41; 6HR MAX TEMP:  47; 6HR PCP:  0.86;

$$

ARZ050-053-066-070-073-171300-
SOUTHWEST ARKANSAS

CITY           SKY/WX    TMP DP  RH WIND       PRES   REMARKS
CAMDEN         CLOUDY    43  41  93 CALM      30.09R
TEXARKANA      CLOUDY    43  43 100 E3        30.06F
6HR MIN TEMP:  42; 6HR MAX TEMP:  43; 6HR PCP:  0.41;

EL DORADO      CLOUDY    44  44 100 E3        30.08S
6HR MIN TEMP:  43; 6HR MAX TEMP:  45;

DE QUEEN       CLOUDY    44  44 100 E3        30.06F
6HR MIN TEMP:  44; 6HR MAX TEMP:  45;

$$

ARZ056-057-069-171300-
SOUTHEAST ARKANSAS

CITY           SKY/WX    TMP DP  RH WIND       PRES   REMARKS
PINE BLUFF     MOCLDY    42  41  96 E6        30.10R
6HR MIN TEMP:  42; 6HR MAX TEMP:  45; 6HR PCP:  1.10;

STUTTGART      CLOUDY    43  42  97 E8        30.10R
6HR MIN TEMP:  43; 6HR MAX TEMP:  45; 6HR PCP:  1.16;

MONTICELLO     CLOUDY    43  40  89 E7        30.09R
6HR MIN TEMP:  43; 6HR MAX TEMP:  50; 6HR PCP:  1.09;


$$





USA.gov is the U.S. government's official web portal to all federal, state and local government web resources and services.